Weather observations for the past three days for
Ocala International Airport - Jim Taylor Field
Imperial (Metric)
Date Time (edt) Wind (mph) Vis. (mi.) Weather Sky Cond. Temperature (ºF) Relative Humidity Wind Chill (°F) Heat Index (°F) Pressure Precipitation (in)
Air Dwpt 6 hour altimeter (in) sea level (mb) 1 hr 3 hr 6 hr
Max. Min.
23 01:51 Calm 10.00 Fair CLR 75 73 82.9 75 94% 73 30.08 1018.6
23 00:51 SE 3 10.00 Fair CLR 75.9 73 91% 76 30.08 1018.4
22 23:51 Calm 10.00 Fair CLR 77 73.9 90% 78 30.08 1018.4
22 22:51 Calm 10.00 Fair CLR 78.1 73.9 87% 81 30.08 1018.5
22 21:51 Calm 10.00 Fair CLR 79 73.9 85% 83 30.07 1018.2
22 20:51 E 3 3.00 Fair with Haze CLR 81 73 77% 86 30.07 1018.1
22 19:51 E 3 10.00 Fair CLR 82.9 73 91 79 72% 89 30.05 1017.4
22 18:51 N 5 10.00 Fair CLR 82.9 73.9 74% 89 30.03 1017.0
22 17:51 N 9 10.00 Fair CLR 80.1 73 79% 84 30.04 1017.2
22 16:51 N 7 10.00 Partly Cloudy SCT100 79 73 82% 82 30.04 1017.3
22 15:51 W 10 G 20 7.00 Thunderstorm in Vicinity SCT100 80.1 70 71% 83 30.03 1016.9
22 14:51 NW 10 10.00 Thunderstorm FEW041 BKN100 82.9 70 65% 87 30.04 1017.0
22 13:51 Vrbl 6 10.00 Mostly Cloudy SCT045 BKN055 BKN070 91.9 75 93 78.1 58% 103 30.04 1017.3
22 12:51 S 6 10.00 Mostly Cloudy FEW039 SCT049 BKN060 91 75.9 61% 103 30.07 1018.2
22 11:51 Vrbl 3 10.00 Partly Cloudy SCT030 89.1 77 68% 102 30.08 1018.6
22 10:51 S 5 10.00 Partly Cloudy SCT020 88 78.1 73% 102 30.08 1018.6
22 09:51 Vrbl 5 10.00 Fair CLR 84.9 78.1 80% 97 30.08 1018.6
22 08:51 Vrbl 5 10.00 Fair CLR 81 78.1 91% 89 30.07 1018.3
22 07:51 E 3 10.00 Fair CLR 78.1 77 78.1 75 97% 81 30.05 1017.5
22 06:51 Calm 10.00 Fair CLR 75 75 100% 72 30.04 1017.1
22 05:51 Calm 10.00 Fair CLR 75 73.9 96% 73 30.04 1017.1
22 04:51 Calm 10.00 Fair CLR 75 73.9 96% 73 30.03 1017.0
22 03:51 Calm 10.00 Fair CLR 75 73.9 96% 73 30.05 1017.4
22 02:51 Calm 10.00 Partly Cloudy SCT035 75 73.9 96% 73 30.06 1018.0
22 01:51 NW 3 10.00 Fair CLR 75 73.9 77 75 96% 73 30.08 1018.5
22 00:51 Calm 10.00 Fair CLR 75.9 73.9 94% 75 30.08 1018.6
21 23:51 Calm 10.00 Fair CLR 75.9 75 97% 75 30.1 1019.3
21 22:51 E 3 10.00 A Few Clouds FEW095 75.9 73 91% 76 30.11 1019.6
21 21:51 E 5 10.00 Light Rain BKN055 75.9 73.9 94% 75 30.11 1019.4
21 20:51 SE 5 10.00 Thunderstorm FEW050 SCT070 75.9 73 91% 76 30.08 1018.7
21 19:51 E 14 7.00 Thunderstorm Rain BKN044 BKN060 77 73 95 77 88% 78 30.05 1017.4 0.02 0.02
21 18:51 W 8 8.00 Thunderstorm in Vicinity FEW095 87.1 75 67% 97 30.02 1016.4
21 17:51 SW 6 10.00 Mostly Cloudy BKN120 90 73.9 59% 99 30 1015.9
21 16:51 W 13 G 17 10.00 A Few Clouds FEW050 91.9 73.9 56% 102 30.01 1016.2
21 15:51 Calm 10.00 Partly Cloudy SCT040 93.9 73 51% 103 30.02 1016.4
21 14:51 S 8 10.00 Partly Cloudy SCT040 93.9 75 54% 106 30.04 1017.2
21 13:51 Vrbl 3 10.00 Mostly Cloudy BKN041 91 75 91.9 75.9 59% 102 30.07 1018.2
21 12:51 Vrbl 5 10.00 Partly Cloudy SCT034 91 75.9 61% 103 30.09 1018.9
21 11:51 Vrbl 6 10.00 Partly Cloudy SCT025 89.1 77 68% 102 30.1 1019.3
21 10:51 S 5 10.00 Fair CLR 86 75.9 72% 96 30.11 1019.4
21 09:51 S 6 10.00 Fair CLR 84 75 74% 92 30.11 1019.7
21 08:51 S 5 10.00 Fair CLR 81 75.9 85% 87 30.12 1019.8
21 07:51 Calm 10.00 Fair CLR 75.9 73.9 75.9 73 94% 75 30.11 1019.4
21 06:51 Calm 10.00 Fair CLR 73 73 100% 30.08 1018.6
21 05:51 SE 3 10.00 Fair CLR 73 73 100% 30.08 1018.4
21 04:51 E 5 10.00 Fair CLR 73.9 72 94% 30.06 1017.9
21 03:51 E 3 10.00 Fair CLR 73.9 72 94% 30.09 1018.8
21 02:51 E 3 10.00 Fair CLR 73.9 71.1 91% 30.11 1019.5
21 01:51 Calm 10.00 Fair CLR 75 71.1 84 75 88% 75 30.12 1019.9
21 00:51 SE 3 10.00 Fair CLR 75 72 90% 74 30.13 1020.2
20 23:51 SE 8 10.00 Thunderstorm in Vicinity CLR 75.9 73 91% 76 30.15 1020.8
20 22:51 SE 3 10.00 Thunderstorm FEW016 SCT022 BKN028 78.1 72 82% 80 30.14 1020.7
20 21:51 N 5 10.00 Thunderstorm in Vicinity FEW030 OVC065 82 77 85% 90 30.13 1020.4
20 20:51 NW 5 10.00 A Few Clouds FEW090 82.9 75 77% 90 30.1 1019.3
20 19:51 NW 5 10.00 Fair CLR 84 73.9 93.9 78.1 72% 91 30.09 1018.8
20 18:51 W 8 10.00 Fair CLR 84.9 72 65% 91 30.05 1017.4
20 17:51 W 3 10.00 A Few Clouds FEW080 86 75 70% 95 30.08 1018.4
20 16:51 Calm 10.00 A Few Clouds FEW110 79 72 79% 82 30.08 1018.4
20 15:51 W 6 10.00 Thunderstorm Light Rain SCT049 BKN070 BKN085 84 78.1 82% 95 30.09 1019.0
20 14:51 S 7 10.00 Mostly Cloudy BKN050 BKN065 91.9 73.9 56% 102 30.09 1018.9
20 13:51 SW 8 10.00 Partly Cloudy SCT045 93.9 75 93.9 77 54% 106 30.11 1019.4
20 12:51 Calm 10.00 Mostly Cloudy SCT043 BKN055 BKN070 91 73.9 57% 101 30.13 1020.3
20 11:51 S 6 10.00 Fair CLR 90 75 62% 100 30.14 1020.4
20 10:51 Calm 10.00 Fair CLR 88 75.9 68% 99 30.14 1020.4
20 09:51 S 6 10.00 Fair CLR 86 75.9 72% 96 30.13 1020.2
20 08:51 S 8 10.00 Fair CLR 81 75 82% 87 30.13 1020.2
20 07:51 Calm 10.00 Fair CLR 77 75 77 73.9 94% 78 30.12 1019.8
20 06:51 Calm 10.00 Fair CLR 73.9 73 97% 30.11 1019.4
20 05:51 Calm 10.00 Fair CLR 73.9 73 97% 30.09 1019.0
20 04:51 Calm 10.00 Fair CLR 73.9 73 97% 30.1 1019.0
20 03:51 Calm 10.00 Fair CLR 73.9 72 94% 30.09 1018.8
20 02:51 Calm 9.00 Fair CLR 73.9 72 94% 30.1 1019.0
Date Time (edt) Wind (mph) Vis. (mi.) Weather Sky Cond. Air Dwpt Max. Min. Relative Humidity Wind Chill (°F) Heat Index (°F) altimeter (in) sea level (mb) 1 hr 3 hr 6 hr
6 hour
Temperature (ºF) Pressure Precipitation (in)